Weather in Essen

Germany     51°27′07″N   7°00′02″E
temp.,
°C
wind,
m/s
gust,
m/s
humid.,
%
clouds,
%
prec.,
mm/h
press.,
hPa
HPBL,
m
21 april, wed
wed2123:00+13nne247092 0.2 1016173
02:00+11ne137549 0.2 101699
05:00+10ne127675 0.0 101679
08:00+10nne1269100 0.0 1017157
11:00+11nne2357100 0.0 1018406
14:00+12n3348100 0.0 1018795
17:00+13n556084 0.1 10181217
20:00+10n565472 0.2 10191122
22 april, thu
thu2223:00+6nne4860100 0.0 1022758
02:00+4n26645 0.0 1023460
05:00+3nnw256821 0.0 1024199
08:00+4nw256297 0.0 1025285
11:00+8nnw4650100 0.0 10251455
14:00+11nnw4639100 0.0 10251888
17:00+12nnw573875 0.0 10251984
20:00+10nnw46515 0.0 10261190
23 april, fri
fri2323:00+6nnw37703 0.0 1028455
02:00+4nw25835 0.0 1028230
05:00+3wnw14895 0.0 1029155
08:00+5nw248413 0.0 1030259
11:00+10nnw355539 0.0 10301417
14:00+13nnw45391 0.0 10291893
17:00+14nnw45375 0.0 10281913
20:00+11n35494 0.0 1029866
24 april, sat
sat2423:00+8ne37655 0.0 1030425
02:00+6ne26705 0.0 1030310
05:00+4ne13755 0.0 1030167
08:00+5ne126755 0.0 1030286
11:00+9n2553100 0.0 10301215
14:00+11n4653100 0.0 10291419
17:00+11nne365598 0.0 10281458
20:00+10nne366567 0.1 1028821
25 april, sun
sun2523:00+7nne39705 0.0 1029440
02:00+5ne26795 0.0 1030275
05:00+3ne248794 0.0 1030175
08:00+5ene23785 0.0 1030247
11:00+10ene23475 0.0 10301127
14:00+13ne33305 0.0 10281532
17:00+14ne333013 0.0 10271673
20:00+11ne34440 0.0 1027809